Location: Shenandoah County Park
(38.9356°N, 78.4524°W)
Time: 14:28:03
(UTC-04:00)

CAS-4B - Pass Details

Date: 23 April 2024
Orbit: 361 x 390 km, 43.0° (Epoch: 14 June)

Event Time Altitude Azimuth Distance (km) Brightness Sun altitude
Exits shadow 03:49:38 18° 56° (NE) 998 ? -26.6°
Drops below altitude 10° 03:50:35 10° 66° (ENE) 1,350 ? -26.5°
Enters shadow 04:52:53 -62° 275° (W) 12,022 ? -17.1°
Maximum altitude 05:27:54 51° 14° (NNE) 459 ? -11.2°
